sat.trackr.live / text

‹ back to catalog

SES-4

NORAD 38087 · 2012-007A

PAYLOAD ACTIVE UNKNOWN

§ Identity

Operator
Country
SES
Launch date
2012-02-14
Launch site
TYMSC
Launch vehicle
Mass (kg)
RCS (m²)
63.35

Purposes: comms

External: N2YO · Heavens-Above · Gunter

§ Orbital elements

Epoch: 2026-09-12T03:32:11.419296Z

Period
1,436.08 min
Inclination
0.0208°
Eccentricity
0.0002552
Mean motion
1.00272696 rev/d
Perigee alt
35,775.6 km
Apogee alt
35,797.1 km
Semi-major
42,164.5 km
B*
0.0000e+0
RAAN
42.8364°
Arg perigee
132.8211°
Mean anomaly
206.5623°
Rev number
5,309

§ Raw data

SES-41 38087U 12007A   26255.14735439 -.00000183  00000+0  00000+0 0  99932 38087   0.0208  42.8364 0002552 132.8211 206.5623  1.00272696 53091

JSON: /api/v1/satellites/38087 · /tle

For live sub-satellite position, see the globe view (requires WebGL).

§ Visibility from observer

Set your observer location to see the next 7 days of passes ≥ 10°. The values pass through the URL so the page stays shareable.

No JS? Fill the form by hand. The geolocation button needs JavaScript.